Weather History for KPBI - November, 2013

Change the Weather History Date:

Sunday, November 10, 2013

  Actual Average Record
Temperature  
Mean Temperature 82 °F 74 °F  
Max Temperature 86 °F 81 °F 88 °F (1987)
Min Temperature 78 °F 66 °F 46 °F (1991)
Degree Days  
Heating Degree Days 0 0  
Month to date heating degree days 0 0  
Since 1 July heating degree days 0 1  
Cooling Degree Days 17 9  
Month to date cooling degree days 146 95  
Year to date cooling degree days 3994 3716  
Growing Degree Days 30 (Base 50)    
Moisture  
Dew Point 67 °F    
Average Humidity 63    
Maximum Humidity 71    
Minimum Humidity 55    
Precipitation  
Precipitation T in 0.18 in 1.45 in (1904)
Month to date precipitation 0.57 1.74  
Year to date precipitation 58.43 55.94  
Snow  
Snow 0.00 in - - ()
Month to date snowfall 0.0  
Since 1 July snowfall 0.0  
Since 1 September snowfall 0.0  
Snow Depth 0.00 in    
Sea Level Pressure  
Sea Level Pressure 30.08 in    
Wind  
Wind Speed 11 mph (ENE)    
Max Wind Speed 17 mph    
Max Gust Speed 22 mph    
Visibility 10 miles    
Events      
T = Trace of Precipitation, MM = Missing Value Source: NWS Daily Summary

Daily Weather History Graph

Daily Weather History Graph

Search for Another Location

Airport or City:

Trip Planner

Search our weather history database for the weather conditions in past years. The results will help you decide how hot, cold, wet, or windy it might be!

Date:

Astronomy

Nov. 10, 2013 Rise Set
Actual Time 6:36 AM EST 5:32 PM EST
Civil Twilight 6:11 AM EST 5:56 PM EST
Nautical Twilight 5:44 AM EST 6:24 PM EST
Astronomical Twilight 5:16 AM EST 6:51 PM EST
Moon 1:00 PM EST (11/10) No Moon Set
Length of Visible Light 11h 44m
Length of Day
10h 55m
First Quarter, 55% of the Moon is Illuminated
Nov 10
First Quarter
Nov 17
Full
Nov 25
Last Quarter
Dec 2
New
Dec 9
First Quarter

Hourly Weather History & Observations

Time (EST) Temp. Heat Index Dew Point Humidity Pressure Visibility Wind Dir Wind Speed Gust Speed Precip Events Conditions
12:53 AM 79.0 °F - 68.0 °F 69% 30.09 in 10.0 mi ENE 15.0 mph - N/A   Overcast
1:53 AM 78.1 °F - 68.0 °F 71% 30.08 in 10.0 mi ENE 11.5 mph - N/A   Overcast
2:53 AM 78.1 °F - 68.0 °F 71% 30.07 in 10.0 mi ENE 10.4 mph - N/A   Overcast
3:32 AM 78.8 °F - 68.0 °F 69% 30.07 in 10.0 mi ENE 12.7 mph - N/A   Overcast
3:53 AM 78.1 °F - 68.0 °F 71% 30.07 in 10.0 mi ENE 10.4 mph - N/A   Overcast
4:53 AM 78.1 °F - 66.9 °F 68% 30.07 in 10.0 mi ENE 11.5 mph 19.6 mph N/A   Scattered Clouds
5:53 AM 78.1 °F - 68.0 °F 71% 30.09 in 10.0 mi ENE 12.7 mph - N/A   Mostly Cloudy
6:53 AM 78.1 °F - 66.9 °F 68% 30.10 in 10.0 mi ENE 9.2 mph - N/A   Mostly Cloudy
7:53 AM 79.0 °F - 68.0 °F 69% 30.11 in 10.0 mi ENE 10.4 mph - N/A   Mostly Cloudy
8:53 AM 80.1 °F 82.7 °F 68.0 °F 67% 30.12 in 10.0 mi East 11.5 mph - N/A   Mostly Cloudy
9:53 AM 82.0 °F 84.9 °F 68.0 °F 62% 30.13 in 10.0 mi ENE 12.7 mph - N/A   Mostly Cloudy
10:53 AM 82.0 °F 84.9 °F 68.0 °F 62% 30.12 in 10.0 mi ENE 9.2 mph - N/A   Mostly Cloudy
11:53 AM 84.0 °F 87.8 °F 69.1 °F 61% 30.10 in 10.0 mi ENE 13.8 mph - N/A   Mostly Cloudy
12:53 PM 84.0 °F 87.0 °F 68.0 °F 58% 30.08 in 10.0 mi NE 13.8 mph - N/A   Mostly Cloudy
1:53 PM 84.0 °F 87.0 °F 68.0 °F 58% 30.07 in 10.0 mi NE 12.7 mph 18.4 mph N/A   Scattered Clouds
2:53 PM 84.0 °F 86.5 °F 66.9 °F 56% 30.05 in 10.0 mi ENE 12.7 mph - N/A   Mostly Cloudy
3:53 PM 82.0 °F 84.9 °F 68.0 °F 62% 30.06 in 10.0 mi NE 11.5 mph - N/A   Mostly Cloudy
4:53 PM 81.0 °F 83.8 °F 68.0 °F 65% 30.06 in 10.0 mi ENE 10.4 mph - 0.00 in   Mostly Cloudy
5:53 PM 80.1 °F 82.3 °F 66.9 °F 64% 30.06 in 10.0 mi ENE 10.4 mph - N/A   Mostly Cloudy
6:53 PM 80.1 °F 82.1 °F 66.0 °F 62% 30.07 in 10.0 mi NE 9.2 mph - N/A   Mostly Cloudy
7:53 PM 80.1 °F 82.3 °F 66.9 °F 64% 30.08 in 10.0 mi NE 9.2 mph - N/A   Mostly Cloudy
8:53 PM 80.1 °F 82.1 °F 66.0 °F 62% 30.09 in 10.0 mi ENE 9.2 mph - N/A   Mostly Cloudy
9:53 PM 79.0 °F - 66.0 °F 64% 30.09 in 10.0 mi ENE 6.9 mph - N/A   Mostly Cloudy
10:53 PM 79.0 °F - 66.0 °F 64% 30.09 in 10.0 mi ENE 8.1 mph - N/A   Scattered Clouds
11:53 PM 78.1 °F - 64.9 °F 64% 30.08 in 10.0 mi ENE 6.9 mph - N/A   Scattered Clouds